timestamp,surface_pressure_avg,surface_temp_avg,battery_voltage,lat,long
2018-07-07 00:00:00+00:00,225.5081,10.9,13.05,47.84626,-54.09684
2018-07-07 00:10:00+00:00,226.4881,10.9,12.97,47.84626,-54.09684
2018-07-07 00:20:00+00:00,228.8598,10.9,13.05,47.84626,-54.09684
2018-07-07 00:30:00+00:00,230.2131,10.9,13.05,47.84626,-54.09684
2018-07-07 00:40:00+00:00,230.3298,10.89,13.05,47.84626,-54.09684
2018-07-07 00:50:00+00:00,231.0198,10.81,13.05,47.84626,-54.09684
2018-07-07 01:00:00+00:00,232.3015,10.8,13.05,47.84626,-54.09684
2018-07-07 01:10:00+00:00,234.3197,10.81,12.97,47.84626,-54.09684
2018-07-07 01:20:00+00:00,236.3731,10.85,13.05,47.84626,-54.09684
2018-07-07 01:30:00+00:00,237.3364,10.87,13.05,47.84626,-54.09684
2018-07-07 01:40:00+00:00,237.5781,10.88,13.05,47.84626,-54.09684
2018-07-07 01:50:00+00:00,241.4648,10.88,13.05,47.84626,-54.09684
2018-07-07 02:00:00+00:00,243.7014,10.86,12.97,47.84626,-54.09684
2018-07-07 02:10:00+00:00,246.0497,10.8,12.97,47.84626,-54.09684
2018-07-07 02:20:00+00:00,249.2647,10.8,12.97,47.84626,-54.09684
2018-07-07 02:30:00+00:00,255.0931,10.8,12.97,47.84626,-54.09684
2018-07-07 02:40:00+00:00,255.3997,10.8,13.05,47.84626,-54.09684
2018-07-07 02:50:00+00:00,257.5647,10.78,13.05,47.84626,-54.09684
2018-07-07 03:00:00+00:00,265.4314,10.71,12.97,47.84626,-54.09684
2018-07-07 03:10:00+00:00,272.6681,10.7,12.89,47.84626,-54.09684
2018-07-07 03:20:00+00:00,272.6831,10.7,12.97,47.84626,-54.09684
2018-07-07 03:30:00+00:00,275.7164,10.7,12.97,47.84626,-54.09684
2018-07-07 03:40:00+00:00,286.3063,10.68,12.97,47.84626,-54.09684
2018-07-07 03:50:00+00:00,294.3297,10.67,12.97,47.84626,-54.09684
2018-07-07 04:00:00+00:00,294.5813,10.7,12.97,47.84626,-54.09684
2018-07-07 04:10:00+00:00,298.3314,10.7,12.89,47.84626,-54.09684
2018-07-07 04:20:00+00:00,307.7147,10.7,12.97,47.84626,-54.09684
2018-07-07 04:30:00+00:00,307.748,10.7,12.97,47.84626,-54.09684
2018-07-07 04:40:00+00:00,308.8263,10.7,12.97,47.84626,-54.09684
2018-07-07 04:50:00+00:00,316.9529,10.7,12.97,47.84626,-54.09684
2018-07-07 05:00:00+00:00,321.223,10.66,12.89,47.84626,-54.09684
2018-07-07 05:10:00+00:00,318.5913,10.7,12.81,47.84626,-54.09684
2018-07-07 05:20:00+00:00,319.2697,10.7,12.89,47.84626,-54.09684
2018-07-07 05:30:00+00:00,325.5646,10.69,12.89,47.84626,-54.09684
2018-07-07 05:40:00+00:00,325.9697,10.7,12.97,47.84626,-54.09684
2018-07-07 05:50:00+00:00,321.003,10.7,12.97,47.84626,-54.09684
2018-07-07 06:00:00+00:00,327.8013,10.7,12.89,47.84626,-54.09684
2018-07-07 06:10:00+00:00,328.7847,10.7,12.81,47.84626,-54.09684
2018-07-07 06:20:00+00:00,324.523,10.74,12.89,47.84626,-54.09684
2018-07-07 06:30:00+00:00,322.7213,10.78,12.89,47.84626,-54.09684
2018-07-07 06:40:00+00:00,326.0696,10.71,12.89,47.84626,-54.09684
2018-07-07 06:50:00+00:00,320.5331,10.73,12.97,47.84626,-54.09684
2018-07-07 07:00:00+00:00,316.8597,10.75,12.89,47.84626,-54.09684
2018-07-07 07:10:00+00:00,318.6197,10.73,12.81,47.84626,-54.09684
2018-07-07 07:20:00+00:00,317.9514,10.7,12.89,47.84626,-54.09684
2018-07-07 07:30:00+00:00,305.6364,10.72,12.89,47.84626,-54.09684
2018-07-07 07:40:00+00:00,300.023,10.7,12.89,47.84626,-54.09684
2018-07-07 07:50:00+00:00,296.5164,10.72,12.97,47.84626,-54.09684
2018-07-07 08:00:00+00:00,291.0847,10.7,12.89,47.84626,-54.09684
2018-07-07 08:10:00+00:00,283.4114,10.69,12.81,47.84626,-54.09684
2018-07-07 08:20:00+00:00,280.9781,10.6,12.89,47.84626,-54.09684
2018-07-07 08:30:00+00:00,275.8047,10.67,12.89,47.84626,-54.09684
2018-07-07 08:40:00+00:00,263.9881,10.7,12.89,47.84626,-54.09684
2018-07-07 08:50:00+00:00,258.9747,10.7,12.97,47.84626,-54.09684
2018-07-07 09:00:00+00:00,258.1165,10.7,12.89,47.84626,-54.09684
2018-07-07 09:10:00+00:00,250.9464,10.7,12.81,47.84626,-54.09684
2018-07-07 09:20:00+00:00,240.0731,10.7,12.89,47.84626,-54.09684
2018-07-07 09:30:00+00:00,237.6915,10.71,12.89,47.84626,-54.09684
2018-07-07 09:40:00+00:00,239.0381,10.7,12.89,47.84626,-54.09684
2018-07-07 09:50:00+00:00,234.8364,10.7,12.97,47.84626,-54.09684
2018-07-07 10:00:00+00:00,230.3731,10.7,12.89,47.84626,-54.09684
2018-07-07 10:10:00+00:00,227.7848,10.7,12.81,47.84626,-54.09684
2018-07-07 10:20:00+00:00,227.5731,10.7,12.89,47.84626,-54.09684
2018-07-07 10:30:00+00:00,223.6581,10.7,12.97,47.84626,-54.09684
2018-07-07 10:40:00+00:00,221.0964,10.7,13.05,47.84626,-54.09684
2018-07-07 10:50:00+00:00,215.9098,10.7,13.05,47.84626,-54.09684
2018-07-07 11:00:00+00:00,214.1031,10.7,13.05,47.84626,-54.09684
2018-07-07 11:10:00+00:00,217.7248,10.7,13.05,47.84626,-54.09684
2018-07-07 11:20:00+00:00,218.513,10.7,13.21,47.84626,-54.09684
2018-07-07 11:30:00+00:00,217.5631,10.7,13.21,47.84626,-54.09684
2018-07-07 11:40:00+00:00,221.0214,10.7,13.29,47.84626,-54.09684
2018-07-07 11:50:00+00:00,224.2048,10.7,13.37,47.84626,-54.09684
2018-07-07 12:00:00+00:00,221.7814,10.7,13.37,47.84626,-54.09684
2018-07-07 12:10:00+00:00,220.7532,10.7,13.29,47.84626,-54.09684
2018-07-07 12:20:00+00:00,230.0998,10.7,13.76,47.84626,-54.09684
2018-07-07 12:30:00+00:00,237.8297,10.7,14.0,47.84626,-54.09684
2018-07-07 12:40:00+00:00,238.7531,10.7,14.4,47.84626,-54.09684
2018-07-07 12:50:00+00:00,234.4764,10.72,15.51,47.84626,-54.09684
2018-07-07 13:00:00+00:00,237.4448,10.74,14.64,47.84626,-54.09684
2018-07-07 13:10:00+00:00,237.1181,10.75,14.56,47.84626,-54.09684
2018-07-07 13:20:00+00:00,239.1497,10.79,14.64,47.84626,-54.09684
2018-07-07 13:30:00+00:00,239.8531,10.8,15.27,47.84626,-54.09684
2018-07-07 13:40:00+00:00,245.1531,10.8,14.56,47.84626,-54.09684
2018-07-07 13:50:00+00:00,243.7747,10.8,14.64,47.84626,-54.09684
2018-07-07 14:00:00+00:00,244.7598,10.89,14.56,47.84626,-54.09684
2018-07-07 14:10:00+00:00,249.253,10.9,14.64,47.84626,-54.09684
2018-07-07 14:20:00+00:00,257.2014,10.89,14.64,47.84626,-54.09684
2018-07-07 14:30:00+00:00,260.9065,10.8,14.8,47.84626,-54.09684
2018-07-07 14:40:00+00:00,261.5747,10.89,14.64,47.84626,-54.09684
2018-07-07 14:50:00+00:00,264.0764,10.8,14.72,47.84626,-54.09684
2018-07-07 15:00:00+00:00,269.6231,10.6,14.56,47.84626,-54.09684
2018-07-07 15:10:00+00:00,269.9115,10.4,14.48,47.84626,-54.09684
2018-07-07 15:20:00+00:00,271.6331,10.4,14.64,47.84626,-54.09684
2018-07-07 15:30:00+00:00,276.9164,10.4,14.56,47.84626,-54.09684
2018-07-07 15:40:00+00:00,286.5864,10.0,14.56,47.84626,-54.09684
2018-07-07 15:50:00+00:00,293.3098,9.8,14.56,47.84626,-54.09684
2018-07-07 16:00:00+00:00,301.7864,9.78,14.48,47.84626,-54.09684
2018-07-07 16:10:00+00:00,309.4914,9.7,14.4,47.84626,-54.09684
2018-07-07 16:20:00+00:00,317.468,9.7,14.48,47.84626,-54.09684
2018-07-07 16:30:00+00:00,319.063,9.7,14.48,47.84626,-54.09684
2018-07-07 16:40:00+00:00,324.9079,9.7,14.48,47.84626,-54.09684
2018-07-07 16:50:00+00:00,331.1797,9.7,14.4,47.84626,-54.09684
2018-07-07 17:00:00+00:00,334.6562,9.7,14.32,47.84626,-54.09684
2018-07-07 17:10:00+00:00,333.3213,9.6,14.24,47.84626,-54.09684
2018-07-07 17:20:00+00:00,337.8214,9.5,14.32,47.84626,-54.09684
2018-07-07 17:30:00+00:00,339.5213,9.5,14.32,47.84626,-54.09684
2018-07-07 17:40:00+00:00,340.0213,9.49,14.24,47.84626,-54.09684
2018-07-07 17:50:00+00:00,338.3096,9.48,14.16,47.84626,-54.09684
2018-07-07 18:00:00+00:00,343.1163,9.49,14.16,47.84626,-54.09684
2018-07-07 18:10:00+00:00,347.4363,9.49,14.08,47.84626,-54.09684
2018-07-07 18:20:00+00:00,347.2213,9.5,14.16,47.84626,-54.09684
2018-07-07 18:30:00+00:00,346.733,9.52,14.16,47.84626,-54.09684
2018-07-07 18:40:00+00:00,344.1763,9.7,14.16,47.84626,-54.09684
2018-07-07 18:50:00+00:00,342.6746,9.84,14.08,47.84626,-54.09684
2018-07-07 19:00:00+00:00,340.9947,9.9,14.08,47.84626,-54.09684
2018-07-07 19:10:00+00:00,336.3797,10.16,14.0,47.84626,-54.09684
2018-07-07 19:20:00+00:00,331.2562,10.32,14.08,47.84626,-54.09684
2018-07-07 19:30:00+00:00,328.3362,10.4,14.08,47.84626,-54.09684
2018-07-07 19:40:00+00:00,331.5063,10.49,14.16,47.84626,-54.09684
2018-07-07 19:50:00+00:00,327.7796,10.5,14.08,47.84626,-54.09684
2018-07-07 20:00:00+00:00,321.2996,10.5,14.0,47.84626,-54.09684
2018-07-07 20:10:00+00:00,319.8697,10.51,13.92,47.84626,-54.09684
2018-07-07 20:20:00+00:00,318.8463,10.55,13.92,47.84626,-54.09684
2018-07-07 20:30:00+00:00,312.0697,10.6,14.0,47.84626,-54.09684
2018-07-07 20:40:00+00:00,308.293,10.68,14.0,47.84626,-54.09684
2018-07-07 20:50:00+00:00,308.043,10.7,13.92,47.84626,-54.09684
2018-07-07 21:00:00+00:00,300.0897,10.8,13.92,47.84626,-54.09684
2018-07-07 21:10:00+00:00,293.8831,10.94,13.76,47.84626,-54.09684
2018-07-07 21:20:00+00:00,291.113,10.99,13.84,47.84626,-54.09684
2018-07-07 21:30:00+00:00,289.328,11.0,13.84,47.84626,-54.09684
2018-07-07 21:40:00+00:00,282.8547,11.0,13.84,47.84626,-54.09684
2018-07-07 21:50:00+00:00,277.3148,11.0,13.84,47.84626,-54.09684
2018-07-07 22:00:00+00:00,271.6931,11.09,13.76,47.84626,-54.09684
2018-07-07 22:10:00+00:00,265.8581,11.1,13.68,47.84626,-54.09684
2018-07-07 22:20:00+00:00,260.0131,11.1,13.68,47.84626,-54.09684
2018-07-07 22:30:00+00:00,260.3864,11.1,13.68,47.84626,-54.09684
2018-07-07 22:40:00+00:00,257.9731,11.11,13.68,47.84626,-54.09684
2018-07-07 22:50:00+00:00,250.8747,11.18,13.68,47.84626,-54.09684
2018-07-07 23:00:00+00:00,246.3414,11.2,13.53,47.84626,-54.09684
2018-07-07 23:10:00+00:00,248.7198,11.25,13.37,47.84626,-54.09684
2018-07-07 23:20:00+00:00,244.5048,11.3,13.37,47.84626,-54.09684
2018-07-07 23:30:00+00:00,232.9531,11.39,13.37,47.84626,-54.09684
2018-07-07 23:40:00+00:00,229.7615,11.5,13.29,47.84626,-54.09684
2018-07-07 23:50:00+00:00,233.1297,11.51,13.29,47.84626,-54.09684
